Racecast

Cadence Moore

Frenchtown (MT) · 12 · MT DA · Compare head to head

Athlete rating 97.4 2022 XC season
Best race 106.2 XC
Races 59
Seasons 4 2020 — 2023

RankedNation #85952·MT #572·MT DA #175·Team #21 ?

Speed rating — all races

Cross Country

XC speed rating

2022 XC 93.4

Frenchtown (MT) · Grade 12

Date Meet Event Result Place Rating Difficulty PR/SR Flags
2022-10-22 University of Montana Golf Course 5000m 25:34.4 122nd · 5th on team 99.3 +0.021 SR CSR RSR
2022-10-15 East Glacier Golf Course 5000m 27:38.2 60th · 5th on team 92.2 +0.024 ★CR CSR
2022-09-27 Whitefish Lake Golf Club 5000m 26:51.4 44th · 3rd on team 95.9 +0.025 SR CSR
2022-09-24 East Helena High School 5000m 27:48.2 41st · 3rd on team 98.4 +0.094 ★CR CSR RSR
2022-09-20 Rivers Bend Golf Course 5000m 27:23.7 48th · 3rd on team 92.9 +0.018 SR CSR RSR
2022-09-17 University of Montana Golf Course 5000m 29:00 311th · 5th on team 87.4 +0.021 CSR
2022-09-09 Rebecca Farm 5000m 28:13.9 78th · 4th on team 90.7 +0.033 SR CSR RSR
2022-09-02 Ronan Canal Bank 5000m 29:25 34th · 3rd on team 90.3 +0.049 SR CSR RSR

2021 XC 101.4

Frenchtown (MT) · Grade 11

Date Meet Event Result Place Rating Difficulty PR/SR Flags
2021-10-23 University of Montana Golf Course 5000m 26:13.8 103rd · 4th on team 98.0 +0.021
2021-10-16 Beaverhead Golf Course 5000m 25:22.2 43rd · 5th on team 101.4 +0.021 ★CR CSR
2021-10-07 Bill Roberts Golf Course 5000m 24:57.4 24th · 1st on team 102.6 +0.023 ★CR CSR
2021-10-02 Polson Fairgrounds 5000m 24:17 31st · 2nd on team 106.2 +0.027 ★PR ★CR ★R SR CSR RSR
2021-09-28 Whitefish Lake Golf Club 5000m 24:42.6 38th · 3rd on team 104.2 +0.025 PR ★CR SR CSR
2021-09-23 Rivers Bend Golf Course 5000m 25:23.5 32nd · 3rd on team 101.0 +0.018 ★CR CSR
2021-09-18 University of Montana Golf Course 5000m 25:08.2 251st · 2nd on team 102.5 +0.021 ★CR CSR
2021-09-10 Rebecca Farm 5000m 25:04.7 55th · 1st on team 103.0 +0.033 PR ★CR SR CSR
2021-09-07 Fairmont Hot Springs Golf Course 5000m 26:39 5th · 1st on team 98.9 +0.043 ★CR CSR
2021-09-03 Ronan Canal Bank 5000m 25:05.3 19th · 1st on team 104.9 +0.049 PR ★CR R SR CSR RSR
2021-08-27 Cabinet View Golf Club 5000m 27:14.5 30th · 3rd on team 93.0 +0.020 ★CR SR CSR RSR

2020 XC 95.7

Frenchtown (MT) · Grade 10

Date Meet Event Result Place Rating Difficulty PR/SR Flags
2020-10-23 Rebecca Farm 5000m 25:06.9 90th · 5th on team 102.8 +0.033 PR CR R SR CSR RSR
2020-10-17 Whitefish Lake Golf Club 5000m 26:11.6 43rd · 5th on team 98.3 +0.025 CR CSR
2020-10-10 Rebecca Farm 5000m 26:01.1 34th · 4th on team 99.8 +0.033 PR CR R SR CSR RSR
2020-10-03 Silver Fox Golf Course 5000m 28:30 43rd · 6th on team 89.9 +0.011 ★CR CSR
2020-09-29 Whitefish Lake Golf Club 5000m 28:30.9 21st · 5th on team 91.1 +0.025 CR CSR
2020-09-24 Rivers Bend Golf Course 5000m 27:44.5 6th · 1st on team 92.6 +0.018 PR CR R SR CSR RSR

Track & Field

TF speed rating

2023 TF

Frenchtown (MT) · Grade 12

Date Meet Event Result Place Rating Difficulty PR/SR Flags
2023-05-20 Western A Track and Field Championships 300mh 59.23 19th · 2nd on team -0.015
2023-05-20 Western A Track and Field Championships 100mh 21.86 19th · 2nd on team -0.015
2023-05-13 Nelson-Thomas ABC Meet 100mh 18.29 10th · 1st on team -0.019 ★PR SR
2023-05-13 Nelson-Thomas ABC Meet 300mh 57.01 9th · 2nd on team -0.019
2023-05-03 Frenchtown Mid-Week 100mh 18.59 4th · 1st on team -0.019 PR SR
2023-05-03 Frenchtown Mid-Week 300mh 55.92 3rd · 1st on team -0.019 ★PR SR
2023-04-29 John Tomich Invitational 100mh 19.49 14th · 1st on team -0.009
2023-04-29 John Tomich Invitational 300mh 59.31 11th · 2nd on team -0.009
2023-04-22 SSHS Track Meet 100mh 18.89 10th · 1st on team -0.025 PR SR
2023-04-22 SSHS Track Meet 300mh 57.98 14th · 2nd on team -0.025
2023-04-15 MCPS Invite 100mh 19.17 25th · 2nd on team -0.025 PR SR
2023-04-15 MCPS Invite 300mh 58.96 31st · 2nd on team -0.025
2023-04-12 Sentinel, Loyola, Frenchtown Tri 100mh 19.32 3rd · 1st on team -0.025 PR SR
2023-04-12 Sentinel, Loyola, Frenchtown Tri 300mh 57.44 4th · 1st on team -0.025 SR
2023-04-06 Hamilton Invitational 100mh 19.95 11th · 1st on team -0.015 SR
2023-04-06 Hamilton Invitational 300mh 58.39 10th · 1st on team -0.015 SR
2023-03-25 Blue Devil Invitational 100mh 20.93 7th · 1st on team -0.015 SR

2021 TF

Frenchtown (MT) · Grade 10

Date Meet Event Result Place Rating Difficulty PR/SR Flags
2021-05-15 Nelson-Thomas ABC Track Meet 100mh 19.54 2nd · 1st on team -0.019 PR SR
2021-05-15 Nelson-Thomas ABC Track Meet 300mh 57.35 3rd · 1st on team -0.019 PR SR
2021-05-06 Corvallis Junior Varsity Meet 100mh 19.94 1st · 1st on team -0.015
2021-05-06 Corvallis Junior Varsity Meet 300mh 59.04 1st · 1st on team -0.015
2021-05-01 Whitefish ARM Invitational 300mh 59 3rd · 1st on team -0.015 PR SR
2021-05-01 Whitefish ARM Invitational 100mh 19.56 1st · 1st on team -0.015 PR SR
2021-04-24 SSHS Invitational 100mh 21.45 18th · 2nd on team -0.025
2021-04-24 SSHS Invitational 300mh 59.47 12th · 1st on team -0.025 PR SR
2021-04-16 Frenchtown Bronc Open 300mh 1:02.7 8th · 2nd on team -0.019
2021-04-16 Frenchtown Bronc Open 100mh 20.99 8th · 1st on team -0.019 PR SR
2021-04-09 Frenchtown Invitational 300mh 1:00.93 6th · 1st on team -0.019 PR SR
2021-04-09 Frenchtown Invitational 100mh 21.05 5th · 1st on team -0.019 PR SR
2021-04-01 Gene Hughes Invitational 300mh 1:04.26 2nd · 1st on team -0.015
2021-04-01 Gene Hughes Invitational 100mh 23.1 6th · 2nd on team -0.015 PR SR
2021-03-27 Blue Devil Invitational 300mh 1:03.95 7th · 1st on team -0.015 PR SR
2021-03-27 Blue Devil Invitational 100mh 23.42 16th · 3rd on team -0.015 PR SR
2021-03-27 Blue Devil Invitational 100m 15.84 20th · 2nd on team -0.015 ★PR SR